Terminal Aerodrome Forecast
Issued by NWS Twin Cities, MN

Home | Current Version | Previous Version | Graphics & Text | Print | Product List | Glossary On
Versions: 1 2 3 4 5 6 7 8 9 10 11 12 13 14 15 16 17 18
000
FTUS43 KMPX 220530
TAFEAU
TAF
KEAU 220530Z 2206/2306 11008KT 6SM -SHRA VCTS SCT010CB OVC035
      TEMPO 2206/2208 4SM SHRA BR BKN010
     FM220800 12007KT 3SM -SHRA BR VCTS BKN007 OVC012CB
     FM221200 14006KT 2SM BR OVC004
     FM221600 25007KT P6SM BKN008 OVC014
     FM222000 01005KT P6SM VCSH OVC014=

USA.gov is the U.S. government's official web portal to all federal, state and local government web resources and services.